| time (UTC) | temp F | wind direction | speed knots | gust knots | rain 1hr in | rain 24hr in | rain mn in | humidity % | barometer mb |
| 20260508004304 | 55 | 287 | 0.0 | 2.6 | 0.00 | 0.05 | 0.05 | 47 | 1003.7 |
| 20260508003804 | 55 | 278 | 0.9 | 2.6 | 0.00 | 0.05 | 0.05 | 48 | 1003.7 |
| 20260508003305 | 55 | 269 | 0.9 | 2.6 | 0.00 | 0.05 | 0.05 | 47 | 1003.7 |
| 20260508002804 | 55 | 275 | 0.0 | 1.7 | 0.00 | 0.05 | 0.05 | 47 | 1003.6 |
| 20260508002307 | 56 | 310 | 0.9 | 2.6 | 0.00 | 0.05 | 0.05 | 46 | 1003.5 |
| 20260508001804 | 56 | 243 | 0.9 | 1.7 | 0.00 | 0.05 | 0.05 | 45 | 1003.5 |
| 20260508001305 | 56 | 69 | 0.9 | 4.3 | 0.00 | 0.05 | 0.05 | 45 | 1003.3 |
| 20260507235805 | 57 | 263 | 0.9 | 2.6 | 0.00 | 0.05 | 0.05 | 42 | 1003.3 |
| 20260507232804 | 59 | 281 | 0.9 | 5.2 | 0.00 | 0.06 | 0.05 | 39 | 1003.1 |
| 20260507230304 | 60 | 286 | 1.7 | 2.6 | 0.00 | 0.08 | 0.05 | 41 | 1002.8 |
| 20260507224804 | 61 | 251 | 2.6 | 6.1 | 0.00 | 0.08 | 0.05 | 34 | 1002.6 |
| 20260507222306 | 62 | 292 | 2.6 | 8.7 | 0.00 | 0.08 | 0.05 | 33 | 1002.4 |
| 20260507221804 | 62 | 275 | 1.7 | 5.2 | 0.00 | 0.08 | 0.05 | 36 | 1002.4 |
| 20260507220804 | 62 | 222 | 1.7 | 8.7 | 0.00 | 0.08 | 0.05 | 35 | 1002.3 |
| 20260507214804 | 63 | 234 | 3.5 | 7.0 | 0.00 | 0.08 | 0.05 | 32 | 1002.2 |
| 20260507214304 | 63 | 265 | 3.5 | 7.8 | 0.00 | 0.08 | 0.05 | 35 | 1002.2 |
| 20260507212307 | 63 | 275 | 2.6 | 7.8 | 0.00 | 0.08 | 0.05 | 33 | 1002.0 |
| 20260507211304 | 64 | 296 | 4.3 | 6.1 | 0.00 | 0.08 | 0.05 | 34 | 1001.9 |
| 20260507210804 | 64 | 326 | 4.3 | 7.8 | 0.00 | 0.08 | 0.05 | 35 | 1001.9 |
| 20260507210304 | 64 | 309 | 3.5 | 8.7 | 0.00 | 0.08 | 0.05 | 34 | 1001.9 |
| 20260507203304 | 65 | 253 | 4.3 | 7.0 | 0.00 | 0.09 | 0.05 | 32 | 1001.9 |
| 20260507202803 | 65 | 256 | 3.5 | 8.7 | 0.00 | 0.10 | 0.05 | 33 | 1002.0 |
| 20260507202306 | 64 | 163 | 2.6 | 8.7 | 0.00 | 0.10 | 0.05 | 35 | 1001.9 |
| 20260507201804 | 65 | 273 | 1.7 | 7.0 | 0.00 | 0.11 | 0.05 | 31 | 1001.9 |
| 20260507201304 | 65 | 246 | 2.6 | 7.8 | 0.00 | 0.11 | 0.05 | 33 | 1001.9 |
| 20260507200803 | 65 | 262 | 3.5 | 8.7 | 0.00 | 0.11 | 0.05 | 33 | 1002.0 |
| 20260507195305 | 65 | 342 | 4.3 | 7.8 | 0.00 | 0.11 | 0.05 | 32 | 1002.1 |
| 20260507194304 | 66 | 291 | 3.5 | 7.8 | 0.00 | 0.12 | 0.05 | 31 | 1002.3 |
| 20260507193304 | 67 | 265 | 2.6 | 6.1 | 0.00 | 0.13 | 0.05 | 31 | 1002.2 |
| 20260507191304 | 66 | 288 | 4.3 | 10.4 | 0.00 | 0.14 | 0.05 | 31 | 1002.5 |
| 20260507190804 | 66 | 320 | 1.7 | 8.7 | 0.00 | 0.14 | 0.05 | 34 | 1002.5 |
| 20260507185305 | 67 | 288 | 2.6 | 7.8 | 0.00 | 0.14 | 0.05 | 35 | 1002.5 |
| 20260507184803 | 66 | 302 | 2.6 | 8.7 | 0.00 | 0.14 | 0.05 | 32 | 1002.6 |
| 20260507183804 | 66 | 311 | 6.1 | 11.3 | 0.00 | 0.14 | 0.05 | 32 | 1002.6 |
| 20260507182803 | 67 | 209 | 3.5 | 7.8 | 0.00 | 0.14 | 0.05 | 32 | 1002.7 |
| 20260507182306 | 67 | 272 | 3.5 | 7.0 | 0.00 | 0.14 | 0.05 | 32 | 1002.8 |
| 20260507174304 | 65 | 302 | 2.6 | 5.2 | 0.00 | 0.14 | 0.05 | 40 | 1002.9 |
| 20260507173805 | 65 | 228 | 2.6 | 11.3 | 0.00 | 0.14 | 0.05 | 37 | 1002.8 |
| 20260507173305 | 65 | 254 | 4.3 | 8.7 | 0.00 | 0.14 | 0.05 | 38 | 1003.0 |
| 20260507172805 | 65 | 292 | 5.2 | 8.7 | 0.00 | 0.14 | 0.05 | 38 | 1002.9 |
| 20260507172307 | 64 | 306 | 2.6 | 7.0 | 0.00 | 0.14 | 0.05 | 42 | 1002.9 |
| 20260507171804 | 64 | 310 | 4.3 | 8.7 | 0.00 | 0.14 | 0.05 | 42 | 1003.0 |
| 20260507170805 | 64 | 283 | 5.2 | 10.4 | 0.00 | 0.14 | 0.05 | 42 | 1003.1 |
| 20260507165306 | 64 | 283 | 3.5 | 7.8 | 0.00 | 0.14 | 0.05 | 47 | 1003.2 |
| 20260507162805 | 64 | 289 | 2.6 | 7.0 | 0.00 | 0.14 | 0.05 | 49 | 1003.4 |
| 20260507162307 | 64 | 250 | 2.6 | 7.8 | 0.00 | 0.14 | 0.05 | 51 | 1003.5 |
| 20260507153805 | 62 | 242 | 2.6 | 6.1 | 0.00 | 0.14 | 0.05 | 53 | 1003.9 |
| 20260507153304 | 62 | 246 | 0.9 | 6.1 | 0.00 | 0.14 | 0.05 | 54 | 1004.0 |
| 20260507152805 | 62 | 204 | 1.7 | 7.0 | 0.00 | 0.14 | 0.05 | 56 | 1004.0 |
| 20260507151804 | 61 | 349 | 1.7 | 7.0 | 0.00 | 0.14 | 0.05 | 55 | 1004.1 |
| 20260507151304 | 61 | 276 | 2.6 | 5.2 | 0.00 | 0.14 | 0.05 | 56 | 1004.2 |
| 20260507145805 | 62 | 282 | 1.7 | 5.2 | 0.00 | 0.14 | 0.05 | 56 | 1004.3 |
| 20260507145307 | 62 | 265 | 2.6 | 7.0 | 0.00 | 0.14 | 0.05 | 56 | 1004.4 |
| 20260507144304 | 62 | 199 | 1.7 | 4.3 | 0.00 | 0.14 | 0.05 | 51 | 1004.5 |
| 20260507142804 | 60 | 292 | 2.6 | 6.1 | 0.00 | 0.14 | 0.05 | 53 | 1004.5 |
| 20260507140805 | 59 | 294 | 1.7 | 5.2 | 0.00 | 0.14 | 0.05 | 57 | 1004.5 |
| 20260507140304 | 59 | 309 | 2.6 | 6.1 | 0.00 | 0.14 | 0.05 | 54 | 1004.6 |
| 20260507135805 | 60 | 275 | 1.7 | 2.6 | 0.00 | 0.14 | 0.05 | 59 | 1004.4 |
| 20260507135306 | 60 | 279 | 2.6 | 5.2 | 0.00 | 0.14 | 0.05 | 60 | 1004.5 |
| 20260507134805 | 59 | 357 | 2.6 | 7.0 | 0.00 | 0.14 | 0.05 | 57 | 1004.5 |
| 20260507134305 | 59 | 346 | 3.5 | 8.7 | 0.00 | 0.14 | 0.05 | 59 | 1004.4 |
| 20260507133305 | 58 | 287 | 2.6 | 5.2 | 0.00 | 0.14 | 0.05 | 60 | 1004.6 |
| 20260507132804 | 57 | 295 | 1.7 | 4.3 | 0.00 | 0.14 | 0.05 | 63 | 1004.7 |
| 20260507130305 | 56 | 280 | 1.7 | 5.2 | 0.00 | 0.14 | 0.05 | 69 | 1004.8 |
| 20260507125804 | 55 | 316 | 3.5 | 7.0 | 0.00 | 0.14 | 0.05 | 67 | 1004.9 |
| 20260507125306 | 55 | 253 | 4.3 | 7.8 | 0.00 | 0.14 | 0.05 | 70 | 1005.0 |
| 20260507124305 | 54 | 289 | 2.6 | 7.0 | 0.00 | 0.14 | 0.05 | 73 | 1004.9 |
| 20260507123305 | 53 | 264 | 1.7 | 5.2 | 0.00 | 0.14 | 0.05 | 74 | 1004.9 |
| 20260507122804 | 53 | 257 | 2.6 | 5.2 | 0.00 | 0.14 | 0.05 | 78 | 1004.8 |
| 20260507121805 | 52 | 238 | 1.7 | 4.3 | 0.00 | 0.14 | 0.05 | 80 | 1005.0 |
| 20260507121305 | 52 | 263 | 2.6 | 4.3 | 0.00 | 0.14 | 0.05 | 80 | 1004.9 |
| 20260507115804 | 51 | 283 | 0.9 | 2.6 | 0.00 | 0.14 | 0.05 | 83 | 1004.9 |
| 20260507114304 | 51 | 272 | 1.7 | 5.2 | 0.00 | 0.14 | 0.05 | 84 | 1004.7 |
| 20260507113305 | 50 | 281 | 0.9 | 2.6 | 0.00 | 0.14 | 0.05 | 86 | 1004.8 |
| 20260507112804 | 50 | 273 | 0.9 | 2.6 | 0.00 | 0.14 | 0.05 | 86 | 1004.8 |
| 20260507111305 | 50 | 250 | 0.9 | 1.7 | 0.01 | 0.14 | 0.05 | 89 | 1004.7 |
| 20260507110805 | 50 | 233 | 0.9 | 1.7 | 0.01 | 0.14 | 0.05 | 90 | 1004.5 |
| 20260507105805 | 49 | 225 | 0.0 | 0.9 | 0.01 | 0.14 | 0.05 | 90 | 1004.8 |
| 20260507105306 | 49 | 225 | 0.0 | 0.9 | 0.01 | 0.14 | 0.05 | 90 | 1004.9 |
| 20260507104805 | 49 | 225 | 0.0 | 0.9 | 0.01 | 0.14 | 0.05 | 90 | 1004.9 |
| 20260507104304 | 49 | 225 | 0.0 | 1.7 | 0.01 | 0.14 | 0.05 | 90 | 1004.9 |
| 20260507103805 | 49 | 254 | 0.9 | 1.7 | 0.01 | 0.14 | 0.05 | 91 | 1004.6 |
| 20260507103305 | 49 | 292 | 0.0 | 0.9 | 0.01 | 0.14 | 0.05 | 90 | 1004.3 |
| 20260507102804 | 49 | 294 | 0.0 | 1.7 | 0.01 | 0.14 | 0.05 | 89 | 1004.2 |
| 20260507102307 | 49 | 294 | 0.9 | 1.7 | 0.02 | 0.14 | 0.05 | 89 | 1004.2 |
| 20260507101304 | 49 | 282 | 0.9 | 2.6 | 0.02 | 0.13 | 0.04 | 89 | 1004.2 |
| 20260507095805 | 49 | 273 | 0.9 | 1.7 | 0.02 | 0.13 | 0.04 | 88 | 1003.9 |
| 20260507094804 | 50 | 277 | 0.9 | 2.6 | 0.02 | 0.13 | 0.04 | 89 | 1004.1 |
| 20260507094304 | 50 | 281 | 0.9 | 2.6 | 0.02 | 0.13 | 0.04 | 89 | 1003.9 |
| 20260507093805 | 50 | 274 | 0.0 | 1.7 | 0.02 | 0.13 | 0.04 | 89 | 1004.2 |
| 20260507091804 | 51 | 256 | 1.7 | 2.6 | 0.00 | 0.11 | 0.02 | 87 | 1004.1 |
| 20260507085804 | 52 | 288 | 0.9 | 2.6 | 0.00 | 0.11 | 0.02 | 87 | 1004.3 |
| 20260507082804 | 52 | 286 | 1.7 | 2.6 | 0.02 | 0.11 | 0.02 | 91 | 1003.8 |
| 20260507081804 | 53 | 332 | 0.0 | 1.7 | 0.02 | 0.11 | 0.02 | 90 | 1003.6 |
| 20260507081304 | 53 | 332 | 0.9 | 0.9 | 0.02 | 0.11 | 0.02 | 90 | 1003.6 |
| 20260507080804 | 53 | 333 | 0.0 | 1.7 | 0.02 | 0.11 | 0.02 | 89 | 1003.8 |
| 20260507074804 | 54 | 274 | 1.7 | 5.2 | 0.01 | 0.10 | 0.01 | 85 | 1003.7 |
| 20260507073304 | 54 | 255 | 1.7 | 2.6 | 0.00 | 0.09 | 0.00 | 83 | 1003.6 |
| 20260507071305 | 54 | 257 | 0.9 | 2.6 | 0.00 | 0.09 | 0.00 | 83 | 1003.2 |
| 20260507070304 | 54 | 294 | 0.9 | 1.7 | 0.00 | 0.09 | 0.00 | 83 | 1003.3 |
| 20260507065804 | 54 | 296 | 0.0 | 1.7 | 0.00 | 0.09 | 0.00 | 82 | 1003.0 |
| 20260507065306 | 54 | 290 | 1.7 | 4.3 | 0.00 | 0.09 | 0.00 | 82 | 1003.1 |
| 20260507064804 | 55 | 277 | 0.9 | 5.2 | 0.00 | 0.09 | 0.00 | 82 | 1003.1 |
| 20260507062804 | 55 | 292 | 1.7 | 6.1 | 0.00 | 0.09 | 0.00 | 83 | 1003.2 |
| 20260507061804 | 55 | 287 | 1.7 | 2.6 | 0.00 | 0.09 | 0.00 | 84 | 1002.9 |
| 20260507061304 | 55 | 292 | 2.6 | 6.1 | 0.00 | 0.09 | 0.00 | 83 | 1003.0 |
| 20260507060805 | 56 | 250 | 2.6 | 6.1 | 0.00 | 0.09 | 0.00 | 83 | 1003.1 |
| 20260507060305 | 56 | 281 | 0.9 | 7.8 | 0.00 | 0.09 | 0.00 | 83 | 1003.0 |
| 20260507055804 | 56 | 287 | 1.7 | 4.3 | 0.00 | 0.09 | 0.00 | 85 | 1003.2 |
| 20260507054805 | 56 | 244 | 1.7 | 4.3 | 0.00 | 0.09 | 0.00 | 86 | 1003.3 |
| 20260507053804 | 57 | 270 | 1.7 | 2.6 | 0.00 | 0.09 | 0.00 | 87 | 1003.5 |
| 20260507052805 | 57 | 253 | 1.7 | 4.3 | 0.00 | 0.09 | 0.00 | 88 | 1003.3 |
| 20260507051804 | 57 | 262 | 2.6 | 5.2 | 0.00 | 0.09 | 0.00 | 88 | 1003.2 |
| 20260507050804 | 57 | 298 | 2.6 | 2.6 | 0.00 | 0.09 | 0.00 | 88 | 1003.1 |
| 20260507044804 | 58 | 267 | 0.9 | 2.6 | 0.00 | 0.09 | 0.00 | 89 | 1003.3 |
| 20260507044305 | 58 | 288 | 1.7 | 2.6 | 0.00 | 0.09 | 0.00 | 89 | 1003.2 |
| 20260507043304 | 59 | 269 | 4.3 | 7.0 | 0.00 | 0.09 | 0.00 | 91 | 1003.0 |
| 20260507041804 | 60 | 178 | 0.0 | 1.7 | 0.00 | 0.09 | 0.00 | 93 | 1003.1 |
| 20260507041304 | 60 | 212 | 0.0 | 2.6 | 0.00 | 0.09 | 0.00 | 93 | 1003.1 |
| 20260507040845 | 60 | 150 | 0.9 | 2.6 | 0.00 | 0.09 | 0.00 | 93 | 1003.1 |
| 20260507040304 | 60 | 193 | 0.9 | 2.6 | 0.00 | 0.09 | 0.00 | 92 | 1003.3 |
| 20260507035804 | 60 | 179 | 0.9 | 2.6 | 0.00 | 0.09 | 0.09 | 92 | 1003.1 |
| 20260507035306 | 60 | 147 | 0.0 | 0.9 | 0.00 | 0.09 | 0.09 | 92 | 1003.1 |
| 20260507034804 | 60 | 161 | 0.9 | 2.6 | 0.00 | 0.09 | 0.09 | 92 | 1002.9 |
| 20260507034305 | 60 | 177 | 1.7 | 2.6 | 0.00 | 0.09 | 0.09 | 92 | 1002.9 |
| 20260507033304 | 61 | 220 | 2.6 | 7.0 | 0.00 | 0.09 | 0.09 | 93 | 1003.0 |
| 20260507031804 | 61 | 271 | 1.7 | 6.1 | 0.00 | 0.09 | 0.09 | 91 | 1002.7 |
| 20260507030304 | 61 | 170 | 1.7 | 7.0 | 0.00 | 0.09 | 0.09 | 91 | 1002.3 |
| 20260507025804 | 61 | 154 | 1.7 | 2.6 | 0.00 | 0.09 | 0.09 | 91 | 1002.2 |
| 20260507025306 | 61 | 210 | 1.7 | 4.3 | 0.00 | 0.09 | 0.09 | 91 | 1002.3 |
| 20260507024805 | 61 | 170 | 1.7 | 7.8 | 0.00 | 0.09 | 0.09 | 91 | 1002.4 |
| 20260507023304 | 60 | 161 | 1.7 | 5.2 | 0.00 | 0.09 | 0.09 | 91 | 1002.6 |
| 20260507020305 | 60 | 143 | 1.7 | 4.3 | 0.00 | 0.09 | 0.09 | 92 | 1002.5 |
| 20260507015306 | 60 | 159 | 2.6 | 7.0 | 0.00 | 0.09 | 0.09 | 92 | 1002.6 |
| 20260507014804 | 60 | 172 | 4.3 | 7.8 | 0.00 | 0.09 | 0.09 | 92 | 1002.6 |
| 20260507011804 | 60 | 152 | 5.2 | 10.4 | 0.00 | 0.09 | 0.09 | 91 | 1002.7 |
| 20260507010304 | 60 | 174 | 2.6 | 7.8 | 0.00 | 0.09 | 0.09 | 91 | 1002.9 |
| 20260507005804 | 60 | 158 | 2.6 | 10.4 | 0.00 | 0.09 | 0.09 | 91 | 1002.9 |